Castlegar/West Kootenay Regional Airport
CYCG : now visible

Airfield :











YOU CAN JOIN US ON...

 
LOGIN :

Register | Disclaimer

   EN    FR    IT 

 









Legend :    VFR   Marginal VFR   IFR   Intensive IFR   Very Intensive IFR
Visi :
Ceiling :
>= 8 km
>= 3000ft
5 to 8 km
1000 to 3000 ft
1500m to 5 km
500 to 1000 ft
800 to 1500m
200 to 500 ft
< 800m
< 200 ft
Symbols :   Thunderstorms  Fog  Heavy snow  Heavy precipitations  Wind > 20 kt






- Airport Elevation : 1624 ft
- IATA code : YCG


CYCG - Castlegar/West Kootenay Regional

CURRENT METAR :
  • 202200Z 35005KT 300V060 15SM SCT090 SCT250 28/07 A3006 RMK AC3CI1 CI TR SLP174 DENSITY ALT 3400FT

EXPIRED METARs :
  • 202100Z 32003KT 230V030 15SM SCT090 SCT250 28/06 A3008 RMK AC3CI1 CI TR SLP180 DENSITY ALT 3300FT
  • 202000Z 35006KT 290V040 15SM SCT080 26/09 A3009 RMK AC4 SLP184 DENSITY ALT 3100FT

TAF TAF CYCG
Valid from the 20 at 19:00 until the 21 at 04:00 UTC


201838Z 2019/2104 34010KT P6SM SCT080 RMK NXT FCST BY 210100Z
CZVR FIR / North America



MET'MAP, your aeronautical weather chart ! - Copyright ORBIFLY December 2007 - Disclaimer

ORBIFLY MET'MAP TEAM :

Programming & Development : Alexandra Zaïnal
Concept & original design : Baudouin d'Aumeries
Assistance for programming : Marc-Olivier Méhu
Technical & hardware support : Manuel Goepfert

Contact : metmap@orbifly.com




SOURCES & CREDITS :

   NOAA       Earth
Advisory